Regional Weather Roundup
Issued by NWS Sioux Falls, SD

Home | Current Version | Previous Version | Text Only | Print | Product List | Glossary On
Versions: 1 2 3 4 5 6 7 8 9 10 11 12 13 14 15 16 17 18 19 20 21 22 23 24 25 26 27 28 29 30 31 32 33 34 35 36 37 38 39 40 41 42 43 44 45 46 47 48 49 50
000
ASUS43 KFSD 271110
RWRFSD

WEATHER ROUNDUP FOR SE SOUTH DAKOTA/SW MINNESOTA/NW IOWA
NATIONAL WEATHER SERVICE SIOUX FALLS SD
500 AM CST SAT DEC 27 2014

NOTE: "FAIR" INDICATES FEW OR NO CLOUDS BELOW 12,000 FEET WITH NO
SIGNIFICANT WEATHER AND OR OBSTRUCTIONS TO VISIBILITY.


SDZ038>040-050-052>070-271200-
SOUTHEAST SOUTH DAKOTA

CITY           SKY/WX    TMP DP  RH WIND       PRES   REMARKS
CHAMBERLAIN    MOCLDY    10   8  90 W3        30.17S
HURON          MOCLDY     7   3  84 NW9       30.19S WCI  -7
MADISON        LGT SNOW  16  16 100 N12       30.11S WCI   3
MITCHELL       CLOUDY    14  10  84 NW12      30.19S WCI   0
SIOUX FALLS    LGT SNOW  19  15  84 NW16      30.12S FOG     WCI   4
WINNER         FAIR      13   8  81 W8        30.16S WCI   2
YANKTON        MOCLDY    18  12  79 NW16      30.17S WCI   3
$$

MNZ071-072-080-081-089-090-097-098-271200-
SOUTHWEST MINNESOTA

CITY           SKY/WX    TMP DP  RH WIND       PRES   REMARKS
FAIRMONT       CLOUDY    25  19  80 NW20      30.01R WCI  11
JACKSON        LGT SNOW  23  19  86 NW22      30.04R WCI   8
LUVERNE        LGT SNOW  21  19  93 N13       30.11S WCI   9
MARSHALL       CLOUDY    16  10  79 N15       30.11R WCI   1
MONTEVIDEO     CLOUDY    16  12  86 N14G20    30.14R WCI   1
PIPESTONE        N/A     18  16  93 N9G16     30.09R WCI   6
REDWOOD FALLS  LGT SNOW  20  17  88 NW12      30.09R VSB 1   WCI   8
TRACY          LGT SNOW  18  15  90 NW13      30.10R WCI   4
WINDOM         LGT SNOW  19  18  93 NW20      30.05S WCI   4
WORTHINGTON    CLOUDY    19 -26  12 NW16      30.07S WCI   5
$$

IAZ001>003-012>014-020>022-031-032-NEZ013-014-SDZ071-271200-
NORTHWEST IOWA

CITY           SKY/WX    TMP DP  RH WIND       PRES   REMARKS
CHEROKEE       FLURRIES  23  22  94 NW12      30.08R WCI  12
DENISON        FLURRIES  25  23  93 NW12      30.06R WCI  14
ESTHERVILLE    LGT SNOW  22  19  89 NW22G28   30.03R FOG     WCI   6
LE MARS        FLURRIES  23  19  86 NW15      30.11F WCI  10
ORANGE CITY    LGT SNOW  21  18  86 NW12      30.08S WCI   9
SHELDON        LGT SNOW  21  19  93 NW17      30.07S WCI   7
SIOUX CITY     LGT SNOW  23  19  85 NW17      30.12S FOG     WCI   9
SPENCER        LGT SNOW  23  18  81 NW16G28   30.05R WCI  10
STORM LAKE     LGT SNOW  23  21  93 NW14G20   30.06R WCI  11
$$

ABBREVIATIONS USED IN REMARKS
   TC - TEMPERATURE IN CELSIUS
  WCI - WIND CHILL INDEX
   HX - HEAT INDEX
  VSB - VISIBILITY




USA.gov is the U.S. government's official web portal to all federal, state and local government web resources and services.